Location: ??????
(42.0089°N, 44.3281°E)
Time: 15:29:56
(UTC+00:00)

Cosmos 1269 Rocket - Pass Details

Date: 24 October 2021
Orbit: 773 x 778 km, 74.1° (Epoch: 07 December)

Event Time Altitude Azimuth Distance (km) Brightness Sun altitude
Rises 14:30:15 0° 343° (NNW) 3,265 7.3 -4.9°
Reaches altitude 10° 14:32:41 10° 347° (NNW) 2,333 6.6 -5.4°
Maximum altitude 14:37:56 62° 68° (ENE) 872 4.1 -6.3°
Drops below altitude 10° 14:43:08 10° 149° (SSE) 2,314 6.3 -7.3°
Sets 14:45:32 0° 152° (SSE) 3,237 7.1 -7.7°
